Voltar ao catálogo

CZ-6A DEB

AtivoPO
NORAD 54463·DEBRIS·🇨🇳 China

Lançado Nov 11, 2022 de Taiyuan Satellite Launch Center

Loading…

Próximas Passagens (próximas 24 horas)

TLE

AtualizadoSource: Space-Track

Época: Sep 14, 2026, 12:43 UTC

1 54463U 22151GP  26257.53033171  .00002473  00000-0  37857-3 0  9997
2 54463  98.6570 354.5923 0121082 297.5538  61.3407 14.69941045204328

Acompanhe CZ-6A DEB em tempo real com AllMySat

Download on the App Store